Hourly Data Report for October 18, 2013

All times are specified in Local Standard Time (LST). Add 1 hour to adjust for Daylight Saving Time where and when it is observed.

PETAWAWA AWOS 2
ONTARIO

45°57'00.000" N
77°19'00.000" W
130.10 m
6106396
71625
YWA

Download Data

Hourly Data (October 2013)
Hourly Data Report for October 18, 2013
Temp Definition
°C
Dew Point Temp Definition
°C
Rel Hum Definition
%
Wind Dir Definition
10's deg

Wind Spd Definition
km/h
Visibility Definition
km
Stn Press Definition
kPa
Hmdx Definition


Wind Chill Definition


Weather Definition


TIME
00:00 9.8 9.6 99   0 15.0 98.94     Rain
01:00 9.8 9.7 99   0 11.3 98.93     Rain
02:00 9.7 9.7 100 30 6 8.0 98.89     Rain
03:00 9.4 9.0 97 31 7 11.3 98.89     Rain
04:00 9.1 8.8 98 29 6 11.3 98.90     Rain
05:00 8.7 8.4 98 28 4 15.0 98.92     Drizzle
06:00 8.4 8.2 99 22 4 15.0 98.95      
07:00 8.5 8.1 97   0 15.0 98.98     Rain
08:00 9.3 8.3 93 23 7 15.0 99.02      
09:00 10.7 7.8 82 24 13 15.0 99.05      
10:00 11.0 7.2 77 25 9 15.0 99.09      
11:00 11.6 6.2 69 25 19 15.0 99.09      
12:00 11.5 9.0 85 24 9 15.0 99.08      
13:00 13.0 5.9 62 27 19 15.0 99.06      
14:00 13.2 4.9 57 25 19 15.0 99.08      
15:00 13.4 1.2 43 24 20 15.0 99.12      
16:00 12.7 2.3 49 27 13 15.0 99.16      
17:00 11.4 2.5 54 25 7 15.0 99.19      
18:00 10.2 3.0 61 27 6 15.0 99.25      
19:00 8.2 4.5 77 21 7 15.0 99.31      
20:00 7.6 4.4 80 22 7 15.0 99.36      
21:00 7.0 4.6 85 21 9 15.0 99.41      
22:00 6.5 4.8 89 20 6 15.0 99.42      
23:00 8.3 5.9 85 29 4 15.0 99.40      

Notes on Data Quality.

Legend

  • E = Estimated
  • M = Missing
  • NA = Not Available
  • ‡ = Partner data that is not subject to review by the National Climate Archives
Date modified: